(103) Hera
ephemeris date magn radius delta ra dec elong phase
Today14 Jul 202613.62.882 AU3.403 AU11h00m+09°41'51.5°16.0°
Opposition26 May 202711.22.650 AU1.644 AU16h21m-13°06'171.7°3.2°
(103) Hera - 2026-07-14
astro.vanbuitenen.nl


 
-1 year
-1 month
-1 day
Now
+1 day
+1 month
+1 year

The interactive orbit chart above shows the body's path through the solar system and its position at the given date. Green and blue lines are shown perpendicular to the ecliptic plane: Green if the path is above the ecliptic plane, blue if it is below. (Left-click and drag to rotate the view; Right-click and drag to move the view; Use scroll wheel to zoom in our out.)

The orbital elements of Hera are:

            e (Eccentricity)                : 0.0816151
            a (Semimajor axis)              : 2.7013557
            i (Inclination)                 : 5.42727
            Ω (Longitude of ascending node) : 135.95401
            ω (Argument of perihelion)      : 190.41997
            M (Mean anomaly)                : 209.95297
            Epoch                           : 2026 Jun 09

            L (Longitude of perihelion)     : 146.32828
            B (Latitude of perihelion)      : -0.98017
            P (Orbital period in years)     : 4.44            
        

The light curve chart below shows the estimated development of the minor planet's magnitude.


The all-sky chart below shows the path of the minor planet over the same period as the light curve. The current position is marked yellow.





The following chart shows the path of the minor planet in the next few days. The field of view is optimized for (~10x50) binoculars and finderscopes.




Ephemerides:
Date       Time       RA (2000)    DEC (2000)    delta   radius  elong  phase   PA    magn
2026-07-14 00:00 UT   11 00 49.7   +09 41 56     3.403    2.882   51.5   16.0   110   13.6 
2026-07-14 03:35 UT   11 01 00.9   +09 40 48     3.405    2.882   51.4   16.0   110   13.6 
2026-07-15 00:00 UT   11 02 05.0   +09 34 18     3.413    2.881   50.9   15.9   110   13.6 
2026-07-16 00:00 UT   11 03 20.7   +09 26 36     3.423    2.881   50.2   15.7   110   13.6 
2026-07-17 00:00 UT   11 04 36.6   +09 18 52     3.433    2.880   49.6   15.6   110   13.6 
2026-07-18 00:00 UT   11 05 52.9   +09 11 06     3.442    2.880   49.0   15.4   110   13.6 
2026-07-19 00:00 UT   11 07 09.5   +09 03 16     3.452    2.880   48.4   15.3   110   13.6 
2026-07-20 00:00 UT   11 08 26.4   +08 55 24     3.462    2.879   47.8   15.2   110   13.6 
2026-07-21 00:00 UT   11 09 43.5   +08 47 30     3.471    2.879   47.2   15.0   110   13.6 
2026-07-22 00:00 UT   11 11 01.0   +08 39 33     3.480    2.878   46.6   14.9   110   13.6 
2026-07-23 00:00 UT   11 12 18.7   +08 31 33     3.489    2.878   46.0   14.7   110   13.6 
2026-07-24 00:00 UT   11 13 36.7   +08 23 31     3.498    2.877   45.4   14.6   110   13.6 
2026-07-25 00:00 UT   11 14 54.9   +08 15 27     3.507    2.877   44.8   14.4   110   13.6 
2026-07-26 00:00 UT   11 16 13.5   +08 07 21     3.516    2.876   44.2   14.2   110   13.6 
2026-07-27 00:00 UT   11 17 32.2   +07 59 12     3.525    2.876   43.6   14.1   110   13.6 
2026-07-28 00:00 UT   11 18 51.3   +07 51 01     3.534    2.875   43.0   13.9   110   13.6 
2026-07-29 00:00 UT   11 20 10.6   +07 42 48     3.542    2.875   42.4   13.8   110   13.6 
2026-07-30 00:00 UT   11 21 30.1   +07 34 33     3.551    2.874   41.8   13.6   110   13.6 
2026-07-31 00:00 UT   11 22 49.9   +07 26 16     3.559    2.874   41.2   13.4   110   13.6 
2026-08-01 00:00 UT   11 24 09.9   +07 17 56     3.567    2.873   40.6   13.3   109   13.6 
2026-08-02 00:00 UT   11 25 30.1   +07 09 35     3.575    2.873   40.0   13.1   109   13.6 
2026-08-03 00:00 UT   11 26 50.6   +07 01 12     3.583    2.872   39.4   13.0   109   13.6 
2026-08-04 00:00 UT   11 28 11.3   +06 52 46     3.591    2.872   38.8   12.8   109   13.6 
2026-08-05 00:00 UT   11 29 32.3   +06 44 19     3.599    2.871   38.2   12.6   109   13.5 
2026-08-06 00:00 UT   11 30 53.5   +06 35 50     3.607    2.871   37.6   12.5   109   13.5 
2026-08-07 00:00 UT   11 32 14.9   +06 27 18     3.614    2.870   37.0   12.3   109   13.5 


    Terminology:
            
    delta:  distance between minor planet and earth in AU
    radius: distance between minor planet and sun in AU
    magn:   magnitude (brightness) estimate    
    ra:     right ascension in hours (24h = 360deg)
    dec:    declination in degrees
    elong:  elongation in degrees (angle sun-earth-minor planet)    
    phase:  phase angle in degrees (angle sun-minor planet-earth)        
    AU:     Astronomical Unit (mean distance between earth and sun: 149597870.7 km
    

Orbital elements provided by the MPC (Minor Planet Center).
Calculations by a modified version of AAPlus, a C# implementation of the AA+ project by PJ Naughter from the algorithms presented in the book "Astronomical Algorithms" by Jean Meeus.
NGC2000 dso catalog and star labels from VizieR as provided by the Strasbourg astronomical Data Center.
Tycho2 catalog from the ESO archive.